Regional Weather Roundup
Issued by NWS Glasgow, MT

Home | Current Version | Previous Version | Text Only | Print | Product List | Glossary On
Versions: 1 2 3 4 5 6 7 8 9 10 11 12 13 14 15 16 17 18 19 20 21 22 23 24 25 26 27 28 29 30 31 32 33 34 35 36 37 38 39 40 41 42 43 44 45 46 47 48 49 50
000
ASUS45 KGGW 011115
RWRGGW
HOURLY WEATHER ROUNDUP FOR NORTHEAST MONTANA
NATIONAL WEATHER SERVICE GLASGOW MONTANA
400 AM MST SUN FEB 01 2015

NOTE: "FAIR" INDICATES FEW OR NO CLOUDS BELOW 12,000 FEET WITH NO
SIGNIFICANT WEATHER AND/OR OBSTRUCTIONS TO VISISBILITY.

NORTHEAST MONTANA


CITY           SKY/WX    TMP DP  RH WIND       PRES   REMARKS
GLASGOW        CLEAR     -2  -6  83 S5        30.45S
PLENTYWOOD       N/A     -6  -9  86 N3          N/A
WOLF POINT     PTCLDY    -2  -7  79 CALM      30.50F
JORDAN           N/A      1  -3  83 CALM      30.41F
WINNETT          N/A     -2  -5  87 E2          N/A
SIDNEY         PTCLDY    -6 -17  59 NW3       30.50F
GLENDIVE       PTCLDY    -4  -6  92 CALM      30.43S
MALTA            N/A     -9 -12  87 S1          N/A

FORT PECK REPORTS


CITY           SKY/WX    TMP DP  RH WIND       PRES   REMARKS
FORT PECK        N/A     -1  -4  87 E3          N/A
THE PINES        N/A      0  -3  87 S2          N/A

SOUTHEAST MONTANA


CITY           SKY/WX    TMP DP  RH WIND       PRES   REMARKS
BILLINGS       CLOUDY     9   6  88 E3        30.34F
MILES CITY     FLURRIES   2  -2  83 CALM      30.42S
BAKER          LGT SNOW   0  -5  79 NW9       30.36S
LIVINGSTON     CLOUDY    17  10  74 E5        30.22F

CENTRAL MONTANA


CITY           SKY/WX    TMP DP  RH WIND       PRES   REMARKS
HAVRE          CLOUDY   -10 -13  86 W3        30.41F
LEWISTOWN      MOCLDY     4  -1  80 CALM      30.28F
GREAT FALLS    FOG        0  -2  92 S3        30.27F VSB 1/2
CUT BANK       CLEAR     -3  -7  82 SE8       30.24F
HELENA         CLOUDY    15  10  80 CALM      30.29F
BUTTE          CLEAR     12   9  87 SE3       30.17F
BOZEMAN        CLOUDY    17  13  84 CALM      30.25F

WESTERN MONTANA


CITY           SKY/WX    TMP DP  RH WIND       PRES   REMARKS
MISSOULA       CLEAR     26  18  71 SE8       30.24F
KALISPELL      NOT AVBL

NORTH DAKOTA


CITY           SKY/WX    TMP DP  RH WIND       PRES   REMARKS
WILLISTON      PTCLDY   -14 -20  74 W3        30.48F
DICKINSON      FLURRIES  -4 -10  75 N7        30.37R
MINOT          CLOUDY    -9 -18  64 NW8       30.50S
BISMARCK       CLOUDY    -5 -13  68 N13       30.48R WCI -24

SOUTHERN SASKATCHEWAN


CITY           SKY/WX    TMP DP  RH WIND       PRES   REMARKS
REGINA         PTCLDY   -13 -17  84 SW6       30.49F
ESTEVAN        PTCLDY   -11 -17  77 S2        30.48F
SWIFT CURRENT  CLEAR     -6  -9  84 SW9       30.35F




USA.gov is the U.S. government's official web portal to all federal, state and local government web resources and services.